Time,TemperatureF,DewpointF,PressureIn,WindDirection,WindDirectionDegrees,WindSpeedMPH,WindSpeedGustMPH,Humidity,HourlyPrecipIn,Conditions,Clouds,dailyrainin,SolarRadiationWatts/m^2,SoftwareType,DateUTC
2013-03-14 00:00:00,49.9,49.4,30.11,SW,218,0.0,0.0,98,0.00,,---,0.00,0.00,VWS V14.01,2013-03-14 07:00:00,
2013-03-14 00:05:00,49.8,49.3,30.10,SW,217,0.0,0.0,98,0.00,,---,0.00,0.00,VWS V14.01,2013-03-14 07:05:00,
2013-03-14 00:10:00,49.7,49.2,30.11,SW,218,0.0,0.0,98,0.00,,---,0.00,0.00,VWS V14.01,2013-03-14 07:10:00,
2013-03-14 00:15:00,49.7,49.2,30.11,SW,216,0.0,0.0,98,0.00,,---,0.00,0.00,VWS V14.01,2013-03-14 07:15:00,
2013-03-14 00:20:00,49.7,49.2,30.11,SW,217,0.0,1.0,98,0.00,,---,0.00,0.00,VWS V14.01,2013-03-14 07:20:00,
2013-03-14 00:25:00,49.7,49.2,30.10,SW,216,0.0,2.0,98,0.00,,---,0.00,0.00,VWS V14.01,2013-03-14 07:25:00,
2013-03-14 00:30:00,49.7,49.2,30.10,SW,217,0.0,0.0,98,0.00,,---,0.00,0.00,VWS V14.01,2013-03-14 07:30:00,
2013-03-14 00:35:00,49.7,49.2,30.10,SW,218,0.0,0.0,98,0.00,,---,0.00,0.00,VWS V14.01,2013-03-14 07:35:00,
2013-03-14 00:40:00,49.7,49.2,30.11,SW,217,0.0,1.0,98,0.00,,---,0.00,0.00,VWS V14.01,2013-03-14 07:40:00,
2013-03-14 00:45:00,49.6,49.1,30.10,SW,218,0.0,0.0,98,0.00,,---,0.00,0.00,VWS V14.01,2013-03-14 07:45:00,
2013-03-14 00:50:00,49.6,49.1,30.11,SW,216,1.0,2.0,98,0.00,,---,0.00,0.00,VWS V14.01,2013-03-14 07:50:00,
2013-03-14 00:55:00,49.6,49.1,30.10,SSW,210,1.0,2.0,98,0.00,,---,0.00,0.00,VWS V14.01,2013-03-14 07:55:00,
2013-03-14 01:00:00,49.6,49.1,30.10,SSW,209,0.0,1.0,98,0.00,,---,0.00,0.00,VWS V14.01,2013-03-14 08:00:00,
2013-03-14 01:05:00,49.6,49.1,30.10,SSW,208,0.0,0.0,98,0.00,,---,0.00,0.00,VWS V14.01,2013-03-14 08:05:00,
2013-03-14 01:10:00,49.6,49.1,30.10,SSW,210,0.0,0.0,98,0.00,,---,0.00,0.00,VWS V14.01,2013-03-14 08:10:00,
2013-03-14 01:15:00,49.6,49.1,30.10,SSW,209,0.0,0.0,98,0.00,,---,0.00,0.00,VWS V14.01,2013-03-14 08:15:00,
2013-03-14 01:20:00,49.5,49.0,30.10,SSW,209,0.0,0.0,98,0.00,,---,0.00,0.00,VWS V14.01,2013-03-14 08:20:00,
2013-03-14 01:25:00,49.5,49.0,30.10,SSW,210,0.0,0.0,98,0.00,,---,0.00,0.00,VWS V14.01,2013-03-14 08:25:00,
2013-03-14 01:30:00,49.5,49.0,30.10,SSW,208,0.0,0.0,98,0.00,,---,0.00,0.00,VWS V14.01,2013-03-14 08:30:00,
2013-03-14 01:35:00,49.4,48.9,30.09,SSW,208,0.0,0.0,98,0.00,,---,0.00,0.00,VWS V14.01,2013-03-14 08:35:00,
2013-03-14 01:40:00,49.4,48.9,30.09,SSW,210,0.0,0.0,98,0.00,,---,0.00,0.00,VWS V14.01,2013-03-14 08:40:00,
2013-03-14 01:45:00,49.4,48.9,30.09,SSW,208,0.0,0.0,98,0.00,,---,0.00,0.00,VWS V14.01,2013-03-14 08:45:00,
2013-03-14 01:50:00,49.4,48.9,30.09,SSW,209,0.0,0.0,98,0.00,,---,0.00,0.00,VWS V14.01,2013-03-14 08:50:00,
2013-03-14 01:55:00,49.4,48.9,30.09,SSW,209,0.0,0.0,98,0.00,,---,0.00,0.00,VWS V14.01,2013-03-14 08:55:00,
2013-03-14 02:00:00,49.4,48.9,30.09,SSW,209,0.0,0.0,98,0.00,,---,0.00,0.00,VWS V14.01,2013-03-14 09:00:00,
2013-03-14 02:05:00,49.4,48.9,30.09,SSW,210,0.0,0.0,98,0.00,,---,0.00,0.00,VWS V14.01,2013-03-14 09:05:00,
2013-03-14 02:10:00,49.4,48.9,30.09,SSW,209,0.0,0.0,98,0.00,,---,0.00,0.00,VWS V14.01,2013-03-14 09:10:00,
2013-03-14 02:15:00,49.4,48.9,30.09,SSW,210,0.0,0.0,98,0.00,,---,0.00,0.00,VWS V14.01,2013-03-14 09:15:00,
2013-03-14 02:20:00,49.3,48.8,30.09,SSW,209,0.0,0.0,98,0.00,,---,0.00,0.00,VWS V14.01,2013-03-14 09:20:00,
2013-03-14 02:25:00,49.2,48.7,30.09,SSW,208,0.0,0.0,98,0.00,,---,0.00,0.00,VWS V14.01,2013-03-14 09:25:00,
2013-03-14 02:30:00,49.1,48.8,30.08,SSW,209,0.0,0.0,99,0.00,,---,0.00,0.00,VWS V14.01,2013-03-14 09:30:00,
2013-03-14 02:35:00,49.1,48.8,30.09,SSW,210,0.0,0.0,99,0.00,,---,0.00,0.00,VWS V14.01,2013-03-14 09:35:00,
2013-03-14 02:40:00,49.0,48.7,30.09,SSW,210,0.0,0.0,99,0.00,,---,0.00,0.00,VWS V14.01,2013-03-14 09:40:00,
2013-03-14 02:45:00,49.0,48.5,30.09,SSW,209,0.0,0.0,98,0.00,,---,0.00,0.00,VWS V14.01,2013-03-14 09:45:00,
2013-03-14 02:50:00,48.8,48.5,30.09,SSW,208,0.0,0.0,99,0.00,,---,0.00,0.00,VWS V14.01,2013-03-14 09:50:00,
2013-03-14 02:55:00,48.8,48.3,30.09,SSW,201,0.0,3.0,98,0.00,,---,0.00,0.00,VWS V14.01,2013-03-14 09:55:00,
2013-03-14 03:00:00,48.9,48.4,30.08,SSW,200,0.0,0.0,98,0.00,,---,0.00,0.00,VWS V14.01,2013-03-14 10:00:00,
2013-03-14 03:05:00,48.8,48.3,30.08,SSW,200,0.0,0.0,98,0.00,,---,0.00,0.00,VWS V14.01,2013-03-14 10:05:00,
2013-03-14 03:10:00,48.8,48.3,30.09,SSW,200,0.0,0.0,98,0.00,,---,0.00,0.00,VWS V14.01,2013-03-14 10:10:00,
2013-03-14 03:15:00,48.7,48.2,30.08,SSW,202,0.0,0.0,98,0.00,,---,0.00,0.00,VWS V14.01,2013-03-14 10:15:00,
2013-03-14 03:20:00,48.7,48.4,30.08,SSW,201,0.0,0.0,99,0.00,,---,0.00,0.00,VWS V14.01,2013-03-14 10:20:00,
2013-03-14 03:25:00,48.7,48.4,30.08,SSW,202,0.0,0.0,99,0.00,,---,0.00,0.00,VWS V14.01,2013-03-14 10:25:00,
2013-03-14 03:30:00,48.7,48.4,30.08,SSW,200,0.0,1.0,99,0.00,,---,0.00,0.00,VWS V14.01,2013-03-14 10:30:00,
2013-03-14 03:35:00,48.7,48.4,30.08,SSW,202,0.0,1.0,99,0.00,,---,0.00,0.00,VWS V14.01,2013-03-14 10:35:00,
2013-03-14 03:40:00,48.7,48.4,30.08,SSW,202,0.0,0.0,99,0.00,,---,0.00,0.00,VWS V14.01,2013-03-14 10:40:00,
2013-03-14 03:45:00,48.7,48.4,30.08,SSW,202,0.0,0.0,99,0.00,,---,0.00,0.00,VWS V14.01,2013-03-14 10:45:00,
2013-03-14 03:50:00,48.8,48.5,30.07,SSW,202,0.0,1.0,99,0.00,,---,0.00,0.00,VWS V14.01,2013-03-14 10:50:00,
2013-03-14 03:55:00,48.8,48.5,30.08,SSW,202,0.0,0.0,99,0.00,,---,0.00,0.00,VWS V14.01,2013-03-14 10:55:00,
2013-03-14 04:00:00,48.7,48.4,30.07,SSW,202,0.0,0.0,99,0.00,,---,0.00,0.00,VWS V14.01,2013-03-14 11:00:00,
2013-03-14 04:05:00,48.7,48.4,30.07,SSW,202,1.0,3.0,99,0.00,,---,0.00,0.00,VWS V14.01,2013-03-14 11:05:00,
2013-03-14 04:10:00,48.7,48.4,30.07,SSW,202,0.0,2.0,99,0.00,,---,0.00,0.00,VWS V14.01,2013-03-14 11:10:00,
2013-03-14 04:15:00,48.7,48.4,30.07,SSW,202,1.0,3.0,99,0.00,,---,0.00,0.00,VWS V14.01,2013-03-14 11:15:00,
2013-03-14 04:20:00,48.7,48.4,30.07,South,180,1.0,3.0,99,0.00,,---,0.00,0.00,VWS V14.01,2013-03-14 11:20:00,
2013-03-14 04:25:00,48.7,48.4,30.06,South,180,1.0,2.0,99,0.00,,---,0.00,0.00,VWS V14.01,2013-03-14 11:25:00,
2013-03-14 04:30:00,48.6,48.3,30.07,SSW,202,2.0,4.0,99,0.00,,---,0.00,0.00,VWS V14.01,2013-03-14 11:30:00,
2013-03-14 04:35:00,48.6,48.3,30.07,SSW,202,3.0,4.0,99,0.00,,---,0.00,0.00,VWS V14.01,2013-03-14 11:35:00,
2013-03-14 04:40:00,48.6,48.3,30.07,SSW,202,2.0,3.0,99,0.00,,---,0.00,0.00,VWS V14.01,2013-03-14 11:40:00,
2013-03-14 04:45:00,48.6,48.3,30.07,SSW,202,2.0,3.0,99,0.00,,---,0.00,0.00,VWS V14.01,2013-03-14 11:45:00,
2013-03-14 04:50:00,48.7,48.4,30.07,South,180,1.0,3.0,99,0.00,,---,0.00,0.00,VWS V14.01,2013-03-14 11:50:00,
2013-03-14 04:55:00,48.8,48.3,30.06,South,180,0.0,1.0,98,0.00,,---,0.00,0.00,VWS V14.01,2013-03-14 11:55:00,
2013-03-14 05:00:00,48.8,48.3,30.05,South,180,0.0,0.0,98,0.00,,---,0.00,0.00,VWS V14.01,2013-03-14 12:00:00,
2013-03-14 05:05:00,48.9,48.4,30.05,South,180,1.0,3.0,98,0.00,,---,0.00,0.00,VWS V14.01,2013-03-14 12:05:00,
2013-03-14 05:10:00,48.8,48.3,30.05,SW,225,1.0,3.0,98,0.00,,---,0.00,0.00,VWS V14.01,2013-03-14 12:10:00,
2013-03-14 05:15:00,48.8,48.3,30.05,SE,135,0.0,2.0,98,0.00,,---,0.00,0.00,VWS V14.01,2013-03-14 12:15:00,
2013-03-14 05:20:00,48.9,48.4,30.05,SE,135,0.0,2.0,98,0.00,,---,0.00,0.00,VWS V14.01,2013-03-14 12:20:00,
2013-03-14 05:25:00,48.8,48.3,30.06,South,180,1.0,2.0,98,0.00,,---,0.00,0.00,VWS V14.01,2013-03-14 12:25:00,
2013-03-14 05:30:00,48.8,48.3,30.05,SE,135,0.0,2.0,98,0.00,,---,0.00,0.00,VWS V14.01,2013-03-14 12:30:00,
2013-03-14 05:35:00,48.8,48.3,30.05,SE,135,0.0,0.0,98,0.00,,---,0.00,0.00,VWS V14.01,2013-03-14 12:35:00,
2013-03-14 05:40:00,48.8,48.3,30.06,SE,135,0.0,2.0,98,0.00,,---,0.00,0.00,VWS V14.01,2013-03-14 12:40:00,
2013-03-14 05:45:00,48.7,48.2,30.05,SE,135,0.0,2.0,98,0.00,,---,0.00,0.00,VWS V14.01,2013-03-14 12:45:00,
2013-03-14 05:50:00,48.7,48.2,30.06,SE,135,0.0,2.0,98,0.00,,---,0.00,0.00,VWS V14.01,2013-03-14 12:50:00,
2013-03-14 05:55:00,48.7,48.2,30.07,SSW,202,0.0,2.0,98,0.00,,---,0.00,0.00,VWS V14.01,2013-03-14 12:55:00,
2013-03-14 06:00:00,48.6,48.1,30.07,South,180,1.0,3.0,98,0.00,,---,0.00,0.00,VWS V14.01,2013-03-14 13:00:00,
2013-03-14 06:05:00,48.6,48.1,30.07,South,180,3.0,5.0,98,0.00,,---,0.00,0.00,VWS V14.01,2013-03-14 13:05:00,
2013-03-14 06:10:00,48.7,48.2,30.08,SSW,202,2.0,5.0,98,0.00,,---,0.00,0.00,VWS V14.01,2013-03-14 13:10:00,
2013-03-14 06:15:00,48.7,48.2,30.07,SSW,202,2.0,4.0,98,0.00,,---,0.00,0.00,VWS V14.01,2013-03-14 13:15:00,
2013-03-14 06:20:00,48.7,48.2,30.06,South,180,0.0,3.0,98,0.00,,---,0.00,0.00,VWS V14.01,2013-03-14 13:20:00,
2013-03-14 06:25:00,48.8,48.3,30.05,South,180,0.0,2.0,98,0.00,,---,0.00,0.00,VWS V14.01,2013-03-14 13:25:00,
2013-03-14 06:30:00,48.8,48.3,30.06,South,180,2.0,4.0,98,0.00,,---,0.00,0.00,VWS V14.01,2013-03-14 13:30:00,
2013-03-14 06:35:00,48.8,48.3,30.06,SW,225,1.0,3.0,98,0.00,,---,0.00,0.00,VWS V14.01,2013-03-14 13:35:00,
2013-03-14 06:40:00,48.8,48.3,30.05,SSW,202,0.0,1.0,98,0.00,,---,0.00,0.00,VWS V14.01,2013-03-14 13:40:00,
2013-03-14 06:45:00,48.8,48.3,30.06,South,180,2.0,4.0,98,0.00,,---,0.00,0.00,VWS V14.01,2013-03-14 13:45:00,
2013-03-14 06:50:00,48.8,48.3,30.06,SSW,202,2.0,3.0,98,0.00,,---,0.00,0.00,VWS V14.01,2013-03-14 13:50:00,
2013-03-14 06:55:00,48.7,48.2,30.06,SSW,202,2.0,4.0,98,0.00,,---,0.00,0.00,VWS V14.01,2013-03-14 13:55:00,
2013-03-14 07:00:00,48.7,48.2,30.07,SW,225,2.0,4.0,98,0.00,,---,0.00,0.00,VWS V14.01,2013-03-14 14:00:00,
2013-03-14 07:05:00,48.6,48.1,30.08,SSW,202,2.0,4.0,98,0.00,,---,0.00,0.00,VWS V14.01,2013-03-14 14:05:00,
2013-03-14 07:10:00,48.7,48.2,30.07,South,180,2.0,4.0,98,0.00,,---,0.00,0.00,VWS V14.01,2013-03-14 14:10:00,
2013-03-14 07:15:00,48.7,48.2,30.08,South,180,2.0,5.0,98,0.00,,---,0.00,0.00,VWS V14.01,2013-03-14 14:15:00,
2013-03-14 07:20:00,48.7,48.2,30.07,South,180,2.0,5.0,98,0.00,,---,0.00,0.00,VWS V14.01,2013-03-14 14:20:00,
2013-03-14 07:25:00,48.8,48.3,30.07,South,180,0.0,0.0,98,0.00,,---,0.00,0.00,VWS V14.01,2013-03-14 14:25:00,
2013-03-14 07:30:00,48.7,48.2,30.07,South,180,0.0,0.0,98,0.00,,---,0.00,0.00,VWS V14.01,2013-03-14 14:30:00,
2013-03-14 07:35:00,48.7,47.9,30.07,South,180,0.0,0.0,97,0.00,,---,0.00,0.00,VWS V14.01,2013-03-14 14:35:00,
2013-03-14 07:40:00,48.7,47.9,30.07,SSE,158,0.0,1.0,97,0.00,,---,0.00,3.00,VWS V14.01,2013-03-14 14:40:00,
2013-03-14 07:45:00,48.7,47.9,30.07,SSE,158,0.0,2.0,97,0.00,,---,0.00,9.00,VWS V14.01,2013-03-14 14:45:00,
2013-03-14 07:50:00,48.7,47.9,30.07,SSE,158,0.0,2.0,97,0.00,,---,0.00,11.00,VWS V14.01,2013-03-14 14:50:00,
2013-03-14 07:55:00,48.7,47.9,30.07,SSE,158,0.0,1.0,97,0.00,,---,0.00,11.00,VWS V14.01,2013-03-14 14:55:00,
2013-03-14 08:00:00,48.8,48.0,30.07,SSE,158,0.0,2.0,97,0.00,,---,0.00,11.00,VWS V14.01,2013-03-14 15:00:00,
2013-03-14 08:05:00,48.8,48.0,30.08,SSW,202,2.0,4.0,97,0.00,,---,0.00,11.00,VWS V14.01,2013-03-14 15:05:00,
2013-03-14 08:07:00,48.8,48.0,30.08,SSW,202,2.0,4.0,97,0.00,,---,0.00,11.00,VWS V14.01,2013-03-14 15:07:00,
2013-03-14 08:10:00,48.8,48.0,30.07,SSW,195,0.0,2.0,97,0.00,,---,0.00,16.00,VWS V14.01,2013-03-14 15:10:00,
2013-03-14 08:12:00,49.0,47.9,30.08,South,173,3.0,4.0,96,0.00,,---,0.00,18.00,VWS V14.01,2013-03-14 15:12:00,
2013-03-14 08:15:00,49.0,48.2,30.08,SSE,165,4.0,4.0,97,0.00,,---,0.00,18.00,VWS V14.01,2013-03-14 15:15:00,
2013-03-14 08:17:00,49.1,48.0,30.08,South,176,3.0,4.0,96,0.00,,---,0.00,25.00,VWS V14.01,2013-03-14 15:17:00,
2013-03-14 08:20:00,49.1,48.0,30.08,SSE,153,1.0,4.0,96,0.00,,---,0.00,21.00,VWS V14.01,2013-03-14 15:20:00,
2013-03-14 08:22:00,49.2,47.8,30.08,SSE,147,4.0,4.0,95,0.00,,---,0.00,33.00,VWS V14.01,2013-03-14 15:22:00,
2013-03-14 08:25:00,49.2,47.8,30.08,South,182,2.0,5.0,95,0.00,,---,0.00,33.00,VWS V14.01,2013-03-14 15:25:00,
2013-03-14 08:27:00,49.4,48.0,30.08,South,178,3.0,4.0,95,0.00,,---,0.00,42.00,VWS V14.01,2013-03-14 15:27:00,
2013-03-14 08:30:00,49.4,48.0,30.08,South,175,4.0,5.0,95,0.00,,---,0.00,42.00,VWS V14.01,2013-03-14 15:30:00,
2013-03-14 08:32:00,49.5,47.8,30.08,SSE,167,3.0,3.0,94,0.00,,---,0.00,32.00,VWS V14.01,2013-03-14 15:32:00,
2013-03-14 08:35:00,49.5,47.8,30.08,South,183,3.0,4.0,94,0.00,,---,0.00,35.00,VWS V14.01,2013-03-14 15:35:00,
2013-03-14 08:37:00,49.7,48.0,30.08,South,178,2.0,3.0,94,0.00,,---,0.00,35.00,VWS V14.01,2013-03-14 15:37:00,
2013-03-14 08:40:00,49.7,48.0,30.08,South,172,3.0,6.0,94,0.00,,---,0.00,33.00,VWS V14.01,2013-03-14 15:40:00,
2013-03-14 08:42:00,49.8,47.9,30.09,South,188,2.0,3.0,93,0.00,,---,0.00,35.00,VWS V14.01,2013-03-14 15:42:00,
2013-03-14 08:45:00,49.8,47.9,30.09,South,188,2.0,4.0,93,0.00,,---,0.00,35.00,VWS V14.01,2013-03-14 15:45:00,
2013-03-14 08:47:00,49.9,48.0,30.09,South,189,2.0,3.0,93,0.00,,---,0.00,37.00,VWS V14.01,2013-03-14 15:47:00,
2013-03-14 08:50:00,49.9,48.0,30.09,SSW,194,2.0,4.0,93,0.00,,---,0.00,35.00,VWS V14.01,2013-03-14 15:50:00,
2013-03-14 08:52:00,49.9,48.0,30.08,South,182,2.0,3.0,93,0.00,,---,0.00,49.00,VWS V14.01,2013-03-14 15:52:00,
2013-03-14 08:55:00,49.9,48.0,30.08,South,180,1.0,3.0,93,0.00,,---,0.00,49.00,VWS V14.01,2013-03-14 15:55:00,
2013-03-14 08:57:00,50.0,48.1,30.08,SSE,167,3.0,3.0,93,0.00,,---,0.00,58.00,VWS V14.01,2013-03-14 15:57:00,
2013-03-14 09:00:00,50.0,48.1,30.08,SSW,199,3.0,5.0,93,0.00,,---,0.00,58.00,VWS V14.01,2013-03-14 16:00:00,
2013-03-14 09:02:00,50.1,48.2,30.08,South,175,3.0,3.0,93,0.00,,---,0.00,63.00,VWS V14.01,2013-03-14 16:02:00,
2013-03-14 09:05:00,50.1,48.2,30.08,South,178,3.0,3.0,93,0.00,,---,0.00,63.00,VWS V14.01,2013-03-14 16:05:00,
2013-03-14 09:07:00,50.2,48.0,30.08,South,178,3.0,3.0,92,0.00,,---,0.00,63.00,VWS V14.01,2013-03-14 16:07:00,
2013-03-14 09:10:00,50.2,48.0,30.08,South,184,3.0,4.0,92,0.00,,---,0.00,65.00,VWS V14.01,2013-03-14 16:10:00,
2013-03-14 09:12:00,50.3,48.1,30.08,SSW,199,1.0,3.0,92,0.00,,---,0.00,49.00,VWS V14.01,2013-03-14 16:12:00,
2013-03-14 09:15:00,50.3,48.1,30.08,SSW,198,3.0,6.0,92,0.00,,---,0.00,49.00,VWS V14.01,2013-03-14 16:15:00,
2013-03-14 09:17:00,50.5,48.3,30.08,SSW,192,2.0,3.0,92,0.00,,---,0.00,53.00,VWS V14.01,2013-03-14 16:17:00,
2013-03-14 09:20:00,50.4,48.2,30.08,SSW,192,1.0,4.0,92,0.00,,---,0.00,53.00,VWS V14.01,2013-03-14 16:20:00,
2013-03-14 09:22:00,50.5,48.3,30.09,South,187,1.0,2.0,92,0.00,,---,0.00,60.00,VWS V14.01,2013-03-14 16:22:00,
2013-03-14 09:25:00,50.5,48.3,30.08,South,187,2.0,4.0,92,0.00,,---,0.00,62.00,VWS V14.01,2013-03-14 16:25:00,
2013-03-14 09:27:00,50.6,48.4,30.09,South,186,0.0,2.0,92,0.00,,---,0.00,63.00,VWS V14.01,2013-03-14 16:27:00,
2013-03-14 09:30:00,50.6,48.4,30.09,South,187,1.0,3.0,92,0.00,,---,0.00,62.00,VWS V14.01,2013-03-14 16:30:00,
2013-03-14 09:33:00,50.6,48.7,30.09,SSW,207,2.0,3.0,93,0.00,,---,0.00,62.00,VWS V14.01,2013-03-14 16:33:00,
2013-03-14 09:35:00,50.6,48.4,30.09,South,186,1.0,2.0,92,0.00,,---,0.00,65.00,VWS V14.01,2013-03-14 16:35:00,
2013-03-14 09:38:00,50.6,48.4,30.09,SW,222,1.0,1.0,92,0.00,,---,0.00,51.00,VWS V14.01,2013-03-14 16:38:00,
2013-03-14 09:40:00,50.6,48.4,30.09,SW,223,1.0,3.0,92,0.00,,---,0.00,51.00,VWS V14.01,2013-03-14 16:40:00,
2013-03-14 09:43:00,50.7,48.8,30.09,SSW,200,0.0,0.0,93,0.00,,---,0.00,58.00,VWS V14.01,2013-03-14 16:43:00,
2013-03-14 09:45:00,50.7,48.8,30.10,SSW,200,0.0,2.0,93,0.00,,---,0.00,54.00,VWS V14.01,2013-03-14 16:45:00,
2013-03-14 09:48:00,50.7,48.5,30.10,SW,229,0.0,0.0,92,0.00,,---,0.00,49.00,VWS V14.01,2013-03-14 16:48:00,
2013-03-14 09:50:00,50.7,48.5,30.09,SW,229,0.0,4.0,92,0.00,,---,0.00,53.00,VWS V14.01,2013-03-14 16:50:00,
2013-03-14 09:53:00,50.7,48.8,30.09,SW,229,0.0,0.0,93,0.00,,---,0.00,54.00,VWS V14.01,2013-03-14 16:53:00,
2013-03-14 09:55:00,50.7,48.8,30.09,SW,229,0.0,1.0,93,0.00,,---,0.00,56.00,VWS V14.01,2013-03-14 16:55:00,
2013-03-14 09:58:00,50.8,48.8,30.10,SW,229,0.0,1.0,93,0.00,,---,0.00,47.00,VWS V14.01,2013-03-14 16:58:00,
2013-03-14 10:00:00,50.8,48.8,30.10,SW,229,1.0,1.0,93,0.00,,---,0.00,44.00,VWS V14.01,2013-03-14 17:00:00,
2013-03-14 10:03:00,50.8,48.8,30.09,SW,229,0.0,2.0,93,0.00,,---,0.00,53.00,VWS V14.01,2013-03-14 17:03:00,
2013-03-14 10:05:00,50.8,48.8,30.09,SW,229,2.0,2.0,93,0.00,,---,0.00,49.00,VWS V14.01,2013-03-14 17:05:00,
2013-03-14 10:08:00,50.8,48.6,30.10,SW,229,1.0,1.0,92,0.00,,---,0.00,49.00,VWS V14.01,2013-03-14 17:08:00,
2013-03-14 10:10:00,50.8,48.6,30.10,SW,229,1.0,2.0,92,0.00,,---,0.00,49.00,VWS V14.01,2013-03-14 17:10:00,
2013-03-14 10:13:00,50.8,48.6,30.09,SW,229,0.0,0.0,92,0.00,,---,0.00,51.00,VWS V14.01,2013-03-14 17:13:00,
2013-03-14 10:15:00,50.8,48.6,30.09,SW,229,0.0,1.0,92,0.00,,---,0.00,51.00,VWS V14.01,2013-03-14 17:15:00,
2013-03-14 10:18:00,50.8,48.6,30.09,SW,229,0.0,0.0,92,0.00,,---,0.00,54.00,VWS V14.01,2013-03-14 17:18:00,
2013-03-14 10:20:00,50.8,48.6,30.09,SW,229,0.0,2.0,92,0.00,,---,0.00,53.00,VWS V14.01,2013-03-14 17:20:00,
2013-03-14 10:23:00,50.8,48.8,30.09,SW,232,1.0,2.0,93,0.00,,---,0.00,46.00,VWS V14.01,2013-03-14 17:23:00,
2013-03-14 10:25:00,50.8,48.8,30.09,SW,232,2.0,3.0,93,0.00,,---,0.00,46.00,VWS V14.01,2013-03-14 17:25:00,
2013-03-14 10:28:00,50.8,48.8,30.09,SW,232,1.0,1.0,93,0.00,,---,0.00,46.00,VWS V14.01,2013-03-14 17:28:00,
2013-03-14 10:30:00,50.8,48.8,30.09,SW,232,1.0,3.0,93,0.00,,---,0.00,46.00,VWS V14.01,2013-03-14 17:30:00,
2013-03-14 10:33:00,50.8,48.8,30.10,SW,226,1.0,4.0,93,0.00,,---,0.00,44.00,VWS V14.01,2013-03-14 17:33:00,
2013-03-14 10:35:00,50.8,48.8,30.10,SW,226,4.0,4.0,93,0.00,,---,0.00,46.00,VWS V14.01,2013-03-14 17:35:00,
2013-03-14 10:38:00,50.8,48.8,30.10,SW,227,1.0,1.0,93,0.00,,---,0.00,37.00,VWS V14.01,2013-03-14 17:38:00,
2013-03-14 10:40:00,50.8,48.8,30.10,SW,226,0.0,4.0,93,0.00,,---,0.00,39.00,VWS V14.01,2013-03-14 17:40:00,
2013-03-14 10:43:00,50.7,48.8,30.10,WSW,257,2.0,4.0,93,0.00,,---,0.00,37.00,VWS V14.01,2013-03-14 17:43:00,
2013-03-14 10:45:00,50.7,48.8,30.10,WSW,257,3.0,4.0,93,0.00,,---,0.00,35.00,VWS V14.01,2013-03-14 17:45:00,
2013-03-14 10:48:00,50.6,48.7,30.10,WSW,258,1.0,2.0,93,0.00,,---,0.00,37.00,VWS V14.01,2013-03-14 17:48:00,
2013-03-14 10:50:00,50.6,48.7,30.10,West,259,2.0,4.0,93,0.00,,---,0.00,40.00,VWS V14.01,2013-03-14 17:50:00,
2013-03-14 10:53:00,50.5,48.6,30.10,WSW,243,3.0,5.0,93,0.00,,---,0.00,46.00,VWS V14.01,2013-03-14 17:53:00,
2013-03-14 10:55:00,50.5,48.6,30.10,WSW,257,2.0,4.0,93,0.00,,---,0.00,46.00,VWS V14.01,2013-03-14 17:55:00,
2013-03-14 10:58:00,50.3,48.1,30.10,SW,219,7.0,7.0,92,0.00,,---,0.00,44.00,VWS V14.01,2013-03-14 17:58:00,
2013-03-14 11:00:00,50.3,48.4,30.10,West,276,4.0,6.0,93,0.00,,---,0.00,46.00,VWS V14.01,2013-03-14 18:00:00,
2013-03-14 11:03:00,50.0,47.8,30.10,West,271,3.0,6.0,92,0.00,,---,0.00,46.00,VWS V14.01,2013-03-14 18:03:00,
2013-03-14 11:05:00,50.1,47.9,30.10,SW,219,2.0,7.0,92,0.00,,---,0.00,44.00,VWS V14.01,2013-03-14 18:05:00,
2013-03-14 11:08:00,49.9,48.0,30.10,West,261,2.0,2.0,93,0.00,,---,0.00,35.00,VWS V14.01,2013-03-14 18:08:00,
2013-03-14 11:10:00,49.9,47.7,30.10,West,262,1.0,6.0,92,0.00,,---,0.00,39.00,VWS V14.01,2013-03-14 18:10:00,
2013-03-14 11:13:00,49.8,47.9,30.10,WSW,257,1.0,2.0,93,0.00,,---,0.00,51.00,VWS V14.01,2013-03-14 18:13:00,
2013-03-14 11:15:00,49.8,47.9,30.10,WSW,252,1.0,3.0,93,0.00,,---,0.00,49.00,VWS V14.01,2013-03-14 18:15:00,
2013-03-14 11:18:00,49.7,47.8,30.10,South,173,2.0,3.0,93,0.00,,---,0.00,56.00,VWS V14.01,2013-03-14 18:18:00,
2013-03-14 11:20:00,49.7,47.8,30.10,SSW,208,1.0,2.0,93,0.00,,---,0.00,49.00,VWS V14.01,2013-03-14 18:20:00,
2013-03-14 11:23:00,49.6,47.7,30.10,South,180,3.0,3.0,93,0.00,,---,0.00,69.00,VWS V14.01,2013-03-14 18:23:00,
2013-03-14 11:25:00,49.6,47.7,30.10,South,179,2.0,4.0,93,0.00,,---,0.00,63.00,VWS V14.01,2013-03-14 18:25:00,
2013-03-14 11:28:00,49.6,47.7,30.10,South,187,6.0,6.0,93,0.00,,---,0.00,56.00,VWS V14.01,2013-03-14 18:28:00,
2013-03-14 11:30:00,49.6,47.7,30.10,SW,214,3.0,5.0,93,0.00,,---,0.00,81.00,VWS V14.01,2013-03-14 18:30:00,
2013-03-14 11:33:00,49.6,47.7,30.10,SW,215,4.0,5.0,93,0.00,,---,0.00,86.00,VWS V14.01,2013-03-14 18:33:00,
2013-03-14 11:35:00,49.6,47.7,30.10,South,191,3.0,8.0,93,0.00,,---,0.00,105.00,VWS V14.01,2013-03-14 18:35:00,
2013-03-14 11:38:00,49.6,47.7,30.10,SSW,199,3.0,5.0,93,0.00,,---,0.00,98.00,VWS V14.01,2013-03-14 18:38:00,
2013-03-14 11:40:00,49.6,47.7,30.10,SSW,212,3.0,6.0,93,0.00,,---,0.00,107.00,VWS V14.01,2013-03-14 18:40:00,
2013-03-14 11:43:00,49.5,47.6,30.09,SW,226,0.0,1.0,93,0.00,,---,0.00,118.00,VWS V14.01,2013-03-14 18:43:00,
2013-03-14 11:45:00,49.5,47.6,30.10,SW,227,0.0,6.0,93,0.00,,---,0.00,100.00,VWS V14.01,2013-03-14 18:45:00,
2013-03-14 11:48:00,49.6,47.7,30.09,SSW,212,2.0,3.0,93,0.00,,---,0.00,109.00,VWS V14.01,2013-03-14 18:48:00,
2013-03-14 11:50:00,49.6,47.7,30.09,SW,226,2.0,3.0,93,0.00,,---,0.00,107.00,VWS V14.01,2013-03-14 18:50:00,
2013-03-14 11:53:00,49.7,47.8,30.10,SSW,208,3.0,4.0,93,0.00,,---,0.00,81.00,VWS V14.01,2013-03-14 18:53:00,
2013-03-14 11:55:00,49.6,47.7,30.09,SW,232,4.0,4.0,93,0.00,,---,0.00,84.00,VWS V14.01,2013-03-14 18:55:00,
2013-03-14 11:58:00,49.7,47.8,30.10,SW,219,3.0,4.0,93,0.00,,---,0.00,88.00,VWS V14.01,2013-03-14 18:58:00,
2013-03-14 12:00:00,49.7,47.8,30.10,SSW,194,2.0,4.0,93,0.00,,---,0.00,88.00,VWS V14.01,2013-03-14 19:00:00,
2013-03-14 12:03:00,49.8,47.9,30.10,South,182,3.0,4.0,93,0.00,,---,0.00,86.00,VWS V14.01,2013-03-14 19:03:00,
2013-03-14 12:05:00,49.8,47.9,30.10,SSW,209,3.0,4.0,93,0.00,,---,0.00,86.00,VWS V14.01,2013-03-14 19:05:00,
2013-03-14 12:08:00,49.8,47.9,30.09,SSW,193,1.0,4.0,93,0.00,,---,0.00,141.00,VWS V14.01,2013-03-14 19:08:00,
2013-03-14 12:10:00,49.9,48.0,30.10,SSW,195,4.0,6.0,93,0.00,,---,0.00,130.00,VWS V14.01,2013-03-14 19:10:00,
2013-03-14 12:13:00,49.6,47.7,30.10,SW,224,4.0,5.0,93,0.00,,---,0.00,88.00,VWS V14.01,2013-03-14 19:13:00,
2013-03-14 12:15:00,49.6,47.7,30.10,SW,225,2.0,6.0,93,0.00,,---,0.00,107.00,VWS V14.01,2013-03-14 19:15:00,
2013-03-14 12:18:00,49.6,47.7,30.10,West,265,1.0,4.0,93,0.00,,---,0.00,79.00,VWS V14.01,2013-03-14 19:18:00,
2013-03-14 12:20:00,49.5,47.6,30.10,WSW,256,3.0,5.0,93,0.00,,---,0.00,74.00,VWS V14.01,2013-03-14 19:20:00,
2013-03-14 12:23:00,49.5,47.6,30.10,WSW,245,3.0,3.0,93,0.00,,---,0.00,79.00,VWS V14.01,2013-03-14 19:23:00,
2013-03-14 12:25:00,49.5,47.6,30.10,SW,217,3.0,5.0,93,0.00,,---,0.00,88.00,VWS V14.01,2013-03-14 19:25:00,
2013-03-14 12:28:00,49.4,47.5,30.10,SW,230,2.0,5.0,93,0.00,,---,0.00,74.00,VWS V14.01,2013-03-14 19:28:00,
2013-03-14 12:30:00,49.5,47.6,30.10,SW,218,2.0,5.0,93,0.00,,---,0.00,88.00,VWS V14.01,2013-03-14 19:30:00,
2013-03-14 12:33:00,49.4,47.5,30.10,WSW,243,3.0,3.0,93,0.00,,---,0.00,79.00,VWS V14.01,2013-03-14 19:33:00,
2013-03-14 12:35:00,49.4,47.5,30.10,WSW,256,1.0,5.0,93,0.00,,---,0.00,72.00,VWS V14.01,2013-03-14 19:35:00,
2013-03-14 12:38:00,49.4,47.5,30.10,SW,217,2.0,2.0,93,0.00,,---,0.00,65.00,VWS V14.01,2013-03-14 19:38:00,
2013-03-14 12:40:00,49.4,47.5,30.10,WSW,242,0.0,4.0,93,0.00,,---,0.00,69.00,VWS V14.01,2013-03-14 19:40:00,
2013-03-14 12:43:00,49.4,47.5,30.10,SW,220,2.0,3.0,93,0.00,,---,0.00,86.00,VWS V14.01,2013-03-14 19:43:00,
2013-03-14 12:45:00,49.4,47.5,30.10,SSW,207,2.0,4.0,93,0.00,,---,0.00,81.00,VWS V14.01,2013-03-14 19:45:00,
2013-03-14 12:48:00,49.4,47.5,30.10,SSW,212,1.0,2.0,93,0.00,,---,0.00,97.00,VWS V14.01,2013-03-14 19:48:00,
2013-03-14 12:50:00,49.4,47.5,30.10,SW,224,2.0,3.0,93,0.00,,---,0.00,107.00,VWS V14.01,2013-03-14 19:50:00,
2013-03-14 12:53:00,49.5,47.6,30.09,SW,227,0.0,0.0,93,0.00,,---,0.00,107.00,VWS V14.01,2013-03-14 19:53:00,
2013-03-14 12:55:00,49.5,47.6,30.10,SW,227,0.0,4.0,93,0.00,,---,0.00,109.00,VWS V14.01,2013-03-14 19:55:00,
2013-03-14 12:58:00,49.6,48.0,30.09,South,179,1.0,3.0,94,0.00,,---,0.00,132.00,VWS V14.01,2013-03-14 19:58:00,
2013-03-14 13:00:00,49.5,47.8,30.09,South,176,2.0,3.0,94,0.00,,---,0.00,118.00,VWS V14.01,2013-03-14 20:00:00,
2013-03-14 13:03:00,49.7,48.0,30.09,SSW,202,1.0,3.0,94,0.00,,---,0.00,169.00,VWS V14.01,2013-03-14 20:03:00,
2013-03-14 13:05:00,49.6,48.0,30.09,SW,215,3.0,3.0,94,0.00,,---,0.00,155.00,VWS V14.01,2013-03-14 20:05:00,
2013-03-14 13:08:00,49.8,48.2,30.09,SSW,205,1.0,2.0,94,0.00,,---,0.00,127.00,VWS V14.01,2013-03-14 20:08:00,
2013-03-14 13:10:00,49.7,48.0,30.09,SSW,205,2.0,3.0,94,0.00,,---,0.00,127.00,VWS V14.01,2013-03-14 20:10:00,
2013-03-14 13:13:00,50.0,48.3,30.09,SW,215,2.0,3.0,94,0.00,,---,0.00,72.00,VWS V14.01,2013-03-14 20:13:00,
2013-03-14 13:15:00,50.0,48.3,30.09,SW,216,1.0,4.0,94,0.00,,---,0.00,79.00,VWS V14.01,2013-03-14 20:15:00,
2013-03-14 13:18:00,50.0,48.3,30.09,SW,215,3.0,3.0,94,0.00,,---,0.00,84.00,VWS V14.01,2013-03-14 20:18:00,
2013-03-14 13:20:00,50.0,48.3,30.09,SW,216,0.0,3.0,94,0.00,,---,0.00,81.00,VWS V14.01,2013-03-14 20:20:00,
2013-03-14 13:23:00,50.0,48.3,30.10,SSW,210,0.0,2.0,94,0.00,,---,0.00,88.00,VWS V14.01,2013-03-14 20:23:00,
2013-03-14 13:25:00,50.0,48.3,30.10,SSW,209,0.0,3.0,94,0.00,,---,0.00,90.00,VWS V14.01,2013-03-14 20:25:00,
2013-03-14 13:28:00,50.1,48.4,30.09,SSW,210,0.0,0.0,94,0.00,,---,0.00,111.00,VWS V14.01,2013-03-14 20:28:00,
2013-03-14 13:30:00,50.0,48.3,30.09,SSW,210,0.0,2.0,94,0.00,,---,0.00,118.00,VWS V14.01,2013-03-14 20:30:00,
2013-03-14 13:33:00,50.3,48.6,30.09,SSW,210,0.0,1.0,94,0.00,,---,0.00,109.00,VWS V14.01,2013-03-14 20:33:00,
2013-03-14 13:35:00,50.2,48.5,30.09,SSW,210,1.0,1.0,94,0.00,,---,0.00,111.00,VWS V14.01,2013-03-14 20:35:00,
2013-03-14 13:38:00,50.7,49.0,30.08,SSW,201,0.0,1.0,94,0.00,,---,0.00,128.00,VWS V14.01,2013-03-14 20:38:00,
2013-03-14 13:40:00,50.6,48.9,30.09,SSW,210,0.0,1.0,94,0.00,,---,0.00,123.00,VWS V14.01,2013-03-14 20:40:00,
2013-03-14 13:43:00,51.0,49.0,30.08,SSW,202,0.0,0.0,93,0.00,,---,0.00,107.00,VWS V14.01,2013-03-14 20:43:00,
2013-03-14 13:45:00,51.0,49.3,30.08,SSW,202,0.0,1.0,94,0.00,,---,0.00,118.00,VWS V14.01,2013-03-14 20:45:00,
2013-03-14 13:48:00,51.2,49.5,30.08,SSE,155,0.0,2.0,94,0.00,,---,0.00,104.00,VWS V14.01,2013-03-14 20:48:00,
2013-03-14 13:50:00,51.1,49.4,30.08,SSW,196,0.0,0.0,94,0.00,,---,0.00,109.00,VWS V14.01,2013-03-14 20:50:00,
2013-03-14 13:53:00,51.5,49.8,30.08,SSE,164,0.0,1.0,94,0.00,,---,0.00,132.00,VWS V14.01,2013-03-14 20:53:00,
2013-03-14 13:55:00,51.4,49.7,30.08,ESE,123,1.0,2.0,94,0.00,,---,0.00,116.00,VWS V14.01,2013-03-14 20:55:00,
2013-03-14 13:58:00,51.8,50.1,30.08,South,190,5.0,5.0,94,0.00,,---,0.00,134.00,VWS V14.01,2013-03-14 20:58:00,
2013-03-14 14:00:00,51.7,50.0,30.08,SSE,164,0.0,2.0,94,0.00,,---,0.00,127.00,VWS V14.01,2013-03-14 21:00:00,
2013-03-14 14:03:00,52.1,50.1,30.08,SSE,150,2.0,6.0,93,0.00,,---,0.00,151.00,VWS V14.01,2013-03-14 21:03:00,
2013-03-14 14:05:00,52.1,50.1,30.08,SSE,165,2.0,5.0,93,0.00,,---,0.00,149.00,VWS V14.01,2013-03-14 21:05:00,
2013-03-14 14:08:00,52.2,50.0,30.07,South,176,4.0,5.0,92,0.00,,---,0.00,144.00,VWS V14.01,2013-03-14 21:08:00,
2013-03-14 14:10:00,52.2,50.0,30.08,South,173,4.0,7.0,92,0.00,,---,0.00,141.00,VWS V14.01,2013-03-14 21:10:00,
2013-03-14 14:13:00,52.3,50.3,30.07,SSE,153,0.0,6.0,93,0.00,,---,0.00,132.00,VWS V14.01,2013-03-14 21:13:00,
2013-03-14 14:15:00,52.3,50.3,30.07,SSE,157,0.0,5.0,93,0.00,,---,0.00,135.00,VWS V14.01,2013-03-14 21:15:00,
2013-03-14 14:18:00,52.6,50.6,30.07,SE,124,0.0,0.0,93,0.00,,---,0.00,178.00,VWS V14.01,2013-03-14 21:18:00,
2013-03-14 14:20:00,52.5,50.5,30.07,SE,124,0.0,6.0,93,0.00,,---,0.00,153.00,VWS V14.01,2013-03-14 21:20:00,
2013-03-14 14:23:00,52.8,50.8,30.06,ESE,114,0.0,0.0,93,0.00,,---,0.00,209.00,VWS V14.01,2013-03-14 21:23:00,
2013-03-14 14:25:00,52.7,50.7,30.06,SE,124,0.0,1.0,93,0.00,,---,0.00,200.00,VWS V14.01,2013-03-14 21:25:00,
2013-03-14 14:28:00,52.8,50.5,30.06,WNW,291,2.0,2.0,92,0.00,,---,0.00,185.00,VWS V14.01,2013-03-14 21:28:00,
2013-03-14 14:30:00,52.8,50.5,30.06,WSW,246,2.0,4.0,92,0.00,,---,0.00,202.00,VWS V14.01,2013-03-14 21:30:00,
2013-03-14 14:33:00,52.8,50.5,30.06,West,269,2.0,3.0,92,0.00,,---,0.00,142.00,VWS V14.01,2013-03-14 21:33:00,
2013-03-14 14:35:00,52.8,50.5,30.06,West,269,3.0,4.0,92,0.00,,---,0.00,156.00,VWS V14.01,2013-03-14 21:35:00,
2013-03-14 14:38:00,52.8,50.5,30.07,West,271,2.0,5.0,92,0.00,,---,0.00,47.00,VWS V14.01,2013-03-14 21:38:00,
2013-03-14 14:40:00,52.8,50.5,30.07,SW,227,4.0,5.0,92,0.00,,---,0.00,47.00,VWS V14.01,2013-03-14 21:40:00,
2013-03-14 14:43:00,52.7,50.5,30.07,West,259,4.0,4.0,92,0.00,,---,0.00,60.00,VWS V14.01,2013-03-14 21:43:00,
2013-03-14 14:45:00,52.7,50.5,30.07,WSW,251,4.0,5.0,92,0.00,,---,0.00,58.00,VWS V14.01,2013-03-14 21:45:00,
2013-03-14 14:48:00,52.6,50.0,30.07,SSW,210,4.0,5.0,91,0.00,,---,0.00,46.00,VWS V14.01,2013-03-14 21:48:00,
2013-03-14 14:50:00,52.7,50.5,30.07,West,275,2.0,5.0,92,0.00,,---,0.00,44.00,VWS V14.01,2013-03-14 21:50:00,
2013-03-14 14:53:00,52.4,49.8,30.07,South,187,5.0,8.0,91,0.00,,---,0.00,114.00,VWS V14.01,2013-03-14 21:53:00,
2013-03-14 14:55:00,52.5,49.7,30.07,SW,223,5.0,7.0,90,0.00,,---,0.00,93.00,VWS V14.01,2013-03-14 21:55:00,
2013-03-14 14:58:00,52.3,49.5,30.08,WSW,244,7.0,10.0,90,0.00,,---,0.00,56.00,VWS V14.01,2013-03-14 21:58:00,
2013-03-14 15:00:00,52.3,49.5,30.07,West,267,4.0,11.0,90,0.00,,---,0.00,77.00,VWS V14.01,2013-03-14 22:00:00,
2013-03-14 15:03:00,52.0,49.2,30.08,WSW,252,5.0,12.0,90,0.00,,---,0.00,33.00,VWS V14.01,2013-03-14 22:03:00,
2013-03-14 15:05:00,52.1,49.3,30.08,West,279,7.0,13.0,90,0.00,,---,0.00,54.00,VWS V14.01,2013-03-14 22:05:00,
2013-03-14 15:08:00,51.7,48.9,30.09,SW,222,9.0,9.0,90,0.00,,---,0.00,74.00,VWS V14.01,2013-03-14 22:08:00,
2013-03-14 15:10:00,51.7,48.9,30.08,SW,230,8.0,12.0,90,0.00,,---,0.00,77.00,VWS V14.01,2013-03-14 22:10:00,
2013-03-14 15:13:00,51.4,48.6,30.09,SW,236,5.0,7.0,90,0.00,,---,0.00,58.00,VWS V14.01,2013-03-14 22:13:00,
2013-03-14 15:15:00,51.5,48.7,30.09,SW,234,7.0,10.0,90,0.00,,---,0.00,69.00,VWS V14.01,2013-03-14 22:15:00,
2013-03-14 15:18:00,51.1,48.0,30.08,SW,231,5.0,7.0,89,0.00,,---,0.00,54.00,VWS V14.01,2013-03-14 22:18:00,
2013-03-14 15:20:00,51.2,48.1,30.08,SW,228,5.0,9.0,89,0.00,,---,0.00,53.00,VWS V14.01,2013-03-14 22:20:00,
2013-03-14 15:23:00,50.8,47.7,30.08,WSW,242,2.0,7.0,89,0.00,,---,0.00,77.00,VWS V14.01,2013-03-14 22:23:00,
2013-03-14 15:25:00,50.9,47.8,30.08,SW,235,7.0,9.0,89,0.00,,---,0.00,81.00,VWS V14.01,2013-03-14 22:25:00,
2013-03-14 15:28:00,50.7,47.6,30.09,SSW,213,6.0,7.0,89,0.00,,---,0.00,65.00,VWS V14.01,2013-03-14 22:28:00,
2013-03-14 15:30:00,50.7,47.6,30.08,West,267,4.0,7.0,89,0.00,,---,0.00,67.00,VWS V14.01,2013-03-14 22:30:00,
2013-03-14 15:33:00,50.7,47.6,30.09,SSW,196,3.0,5.0,89,0.00,,---,0.00,83.00,VWS V14.01,2013-03-14 22:33:00,
2013-03-14 15:35:00,50.7,47.6,30.09,SSW,196,5.0,7.0,89,0.00,,---,0.00,83.00,VWS V14.01,2013-03-14 22:35:00,
2013-03-14 15:38:00,50.7,47.3,30.08,South,188,3.0,5.0,88,0.00,,---,0.00,158.00,VWS V14.01,2013-03-14 22:38:00,
2013-03-14 15:40:00,50.7,47.3,30.08,SW,234,4.0,5.0,88,0.00,,---,0.00,120.00,VWS V14.01,2013-03-14 22:40:00,
2013-03-14 15:43:00,50.9,47.5,30.08,SSW,213,3.0,5.0,88,0.00,,---,0.00,193.00,VWS V14.01,2013-03-14 22:43:00,
2013-03-14 15:45:00,50.8,47.4,30.08,South,171,3.0,5.0,88,0.00,,---,0.00,200.00,VWS V14.01,2013-03-14 22:45:00,
2013-03-14 15:48:00,51.2,47.8,30.08,SSW,205,6.0,6.0,88,0.00,,---,0.00,211.00,VWS V14.01,2013-03-14 22:48:00,
2013-03-14 15:50:00,51.1,47.7,30.08,South,182,2.0,5.0,88,0.00,,---,0.00,204.00,VWS V14.01,2013-03-14 22:50:00,
2013-03-14 15:53:00,51.4,47.7,30.08,SW,221,4.0,5.0,87,0.00,,---,0.00,202.00,VWS V14.01,2013-03-14 22:53:00,
2013-03-14 15:55:00,51.3,47.6,30.08,SW,217,3.0,7.0,87,0.00,,---,0.00,220.00,VWS V14.01,2013-03-14 22:55:00,
2013-03-14 15:58:00,51.3,47.0,30.09,SW,221,5.0,5.0,85,0.00,,---,0.00,120.00,VWS V14.01,2013-03-14 22:58:00,
2013-03-14 16:00:00,51.4,47.4,30.09,SSW,193,4.0,8.0,86,0.00,,---,0.00,137.00,VWS V14.01,2013-03-14 23:00:00,
2013-03-14 16:03:00,51.4,47.4,30.09,SSW,198,3.0,6.0,86,0.00,,---,0.00,76.00,VWS V14.01,2013-03-14 23:03:00,
2013-03-14 16:05:00,51.4,47.4,30.09,WSW,244,2.0,6.0,86,0.00,,---,0.00,91.00,VWS V14.01,2013-03-14 23:05:00,
2013-03-14 16:08:00,51.4,47.0,30.10,SSW,213,2.0,6.0,85,0.00,,---,0.00,51.00,VWS V14.01,2013-03-14 23:08:00,
2013-03-14 16:10:00,51.4,47.4,30.10,WSW,254,3.0,6.0,86,0.00,,---,0.00,46.00,VWS V14.01,2013-03-14 23:10:00,
2013-03-14 16:13:00,51.3,46.6,30.10,South,171,7.0,7.0,84,0.00,,---,0.00,109.00,VWS V14.01,2013-03-14 23:13:00,
2013-03-14 16:15:00,51.4,46.7,30.10,SSW,197,4.0,8.0,84,0.00,,---,0.00,93.00,VWS V14.01,2013-03-14 23:15:00,
2013-03-14 16:18:00,51.4,46.4,30.10,SSE,165,8.0,11.0,83,0.00,,---,0.00,118.00,VWS V14.01,2013-03-14 23:18:00,
2013-03-14 16:20:00,51.4,46.4,30.10,South,190,8.0,11.0,83,0.00,,---,0.00,141.00,VWS V14.01,2013-03-14 23:20:00,
2013-03-14 16:23:00,51.5,46.5,30.10,South,170,3.0,11.0,83,0.00,,---,0.00,123.00,VWS V14.01,2013-03-14 23:23:00,
2013-03-14 16:25:00,51.5,46.5,30.10,SSW,198,7.0,11.0,83,0.00,,---,0.00,134.00,VWS V14.01,2013-03-14 23:25:00,
2013-03-14 16:28:00,51.5,46.5,30.10,SSW,200,5.0,7.0,83,0.00,,---,0.00,95.00,VWS V14.01,2013-03-14 23:28:00,
2013-03-14 16:30:00,51.5,46.8,30.10,South,187,4.0,11.0,84,0.00,,---,0.00,97.00,VWS V14.01,2013-03-14 23:30:00,
2013-03-14 16:33:00,51.4,46.4,30.10,SSE,163,7.0,8.0,83,0.00,,---,0.00,79.00,VWS V14.01,2013-03-14 23:33:00,
2013-03-14 16:35:00,51.5,46.5,30.10,South,186,7.0,7.0,83,0.00,,---,0.00,76.00,VWS V14.01,2013-03-14 23:35:00,
2013-03-14 16:38:00,51.4,46.1,30.09,South,171,8.0,10.0,82,0.00,,---,0.00,81.00,VWS V14.01,2013-03-14 23:38:00,
2013-03-14 16:40:00,51.4,46.4,30.10,South,175,7.0,8.0,83,0.00,,---,0.00,69.00,VWS V14.01,2013-03-14 23:40:00,
2013-03-14 16:43:00,51.3,46.0,30.09,South,182,4.0,5.0,82,0.00,,---,0.00,111.00,VWS V14.01,2013-03-14 23:43:00,
2013-03-14 16:45:00,51.3,46.0,30.09,SSW,194,3.0,10.0,82,0.00,,---,0.00,111.00,VWS V14.01,2013-03-14 23:45:00,
2013-03-14 16:48:00,51.3,46.0,30.09,SSW,209,7.0,7.0,82,0.00,,---,0.00,109.00,VWS V14.01,2013-03-14 23:48:00,
2013-03-14 16:50:00,51.3,46.0,30.09,South,178,6.0,9.0,82,0.00,,---,0.00,104.00,VWS V14.01,2013-03-14 23:50:00,
2013-03-14 16:53:00,51.4,46.1,30.09,SSW,207,6.0,12.0,82,0.00,,---,0.00,121.00,VWS V14.01,2013-03-14 23:53:00,
2013-03-14 16:55:00,51.3,46.0,30.09,SSW,211,7.0,8.0,82,0.00,,---,0.00,121.00,VWS V14.01,2013-03-14 23:55:00,
2013-03-14 16:58:00,51.4,46.1,30.09,SSW,196,5.0,7.0,82,0.00,,---,0.00,135.00,VWS V14.01,2013-03-14 23:58:00,
2013-03-14 17:00:00,51.4,45.8,30.09,SSW,196,7.0,12.0,81,0.00,,---,0.00,127.00,VWS V14.01,2013-03-15 00:00:00,
2013-03-14 17:03:00,51.4,45.8,30.08,South,182,5.0,9.0,81,0.00,,---,0.00,151.00,VWS V14.01,2013-03-15 00:03:00,
2013-03-14 17:05:00,51.4,45.8,30.09,South,172,6.0,9.0,81,0.00,,---,0.00,151.00,VWS V14.01,2013-03-15 00:05:00,
2013-03-14 17:08:00,51.6,45.6,30.08,South,190,5.0,7.0,80,0.00,,---,0.00,123.00,VWS V14.01,2013-03-15 00:08:00,
2013-03-14 17:10:00,51.6,46.0,30.08,SSW,194,1.0,10.0,81,0.00,,---,0.00,146.00,VWS V14.01,2013-03-15 00:10:00,
2013-03-14 17:13:00,51.6,46.0,30.09,South,190,6.0,9.0,81,0.00,,---,0.00,67.00,VWS V14.01,2013-03-15 00:13:00,
2013-03-14 17:15:00,51.7,46.1,30.09,South,176,8.0,8.0,81,0.00,,---,0.00,72.00,VWS V14.01,2013-03-15 00:15:00,
2013-03-14 17:18:00,51.5,45.9,30.09,SW,215,6.0,6.0,81,0.00,,---,0.00,42.00,VWS V14.01,2013-03-15 00:18:00,
2013-03-14 17:20:00,51.5,45.9,30.09,SSW,205,4.0,9.0,81,0.00,,---,0.00,60.00,VWS V14.01,2013-03-15 00:20:00,
2013-03-14 17:23:00,51.5,45.9,30.10,South,173,2.0,4.0,81,0.00,,---,0.00,32.00,VWS V14.01,2013-03-15 00:23:00,
2013-03-14 17:25:00,51.4,45.8,30.10,South,184,4.0,7.0,81,0.00,,---,0.00,35.00,VWS V14.01,2013-03-15 00:25:00,
2013-03-14 17:28:00,51.4,46.1,30.10,SSW,205,2.0,4.0,82,0.00,,---,0.00,32.00,VWS V14.01,2013-03-15 00:28:00,
2013-03-14 17:30:00,51.4,45.8,30.10,SSW,196,4.0,5.0,81,0.00,,---,0.00,35.00,VWS V14.01,2013-03-15 00:30:00,
2013-03-14 17:33:00,51.3,45.7,30.10,SSW,195,5.0,9.0,81,0.00,,---,0.00,25.00,VWS V14.01,2013-03-15 00:33:00,
2013-03-14 17:35:00,51.4,45.8,30.10,SW,219,3.0,6.0,81,0.00,,---,0.00,26.00,VWS V14.01,2013-03-15 00:35:00,
2013-03-14 17:38:00,51.2,45.2,30.10,SSW,207,6.0,9.0,80,0.00,,---,0.00,26.00,VWS V14.01,2013-03-15 00:38:00,
2013-03-14 17:40:00,51.3,45.7,30.10,South,180,7.0,10.0,81,0.00,,---,0.00,23.00,VWS V14.01,2013-03-15 00:40:00,
2013-03-14 17:43:00,51.2,45.6,30.10,SSW,192,2.0,6.0,81,0.00,,---,0.00,25.00,VWS V14.01,2013-03-15 00:43:00,
2013-03-14 17:45:00,51.2,45.6,30.10,South,187,5.0,9.0,81,0.00,,---,0.00,25.00,VWS V14.01,2013-03-15 00:45:00,
2013-03-14 17:48:00,51.1,45.5,30.09,SSW,198,6.0,8.0,81,0.00,,---,0.00,26.00,VWS V14.01,2013-03-15 00:48:00,
2013-03-14 17:50:00,51.1,45.5,30.10,South,171,8.0,8.0,81,0.00,,---,0.00,25.00,VWS V14.01,2013-03-15 00:50:00,
2013-03-14 17:53:00,51.0,45.4,30.10,South,182,6.0,7.0,81,0.00,,---,0.00,33.00,VWS V14.01,2013-03-15 00:53:00,
2013-03-14 17:55:00,51.0,45.4,30.10,South,187,7.0,9.0,81,0.00,,---,0.00,32.00,VWS V14.01,2013-03-15 00:55:00,
2013-03-14 17:58:00,50.9,45.0,30.10,South,186,6.0,10.0,80,0.00,,---,0.00,40.00,VWS V14.01,2013-03-15 00:58:00,
2013-03-14 18:00:00,50.9,45.3,30.10,South,175,8.0,9.0,81,0.00,,---,0.00,37.00,VWS V14.01,2013-03-15 01:00:00,
2013-03-14 18:03:00,50.9,45.0,30.10,SSW,211,5.0,7.0,80,0.00,,---,0.00,65.00,VWS V14.01,2013-03-15 01:03:00,
2013-03-14 18:05:00,50.9,45.0,30.10,SW,219,6.0,10.0,80,0.00,,---,0.00,56.00,VWS V14.01,2013-03-15 01:05:00,
2013-03-14 18:08:00,51.0,45.1,30.10,South,187,6.0,7.0,80,0.00,,---,0.00,56.00,VWS V14.01,2013-03-15 01:08:00,
2013-03-14 18:10:00,51.0,45.1,30.10,SSW,200,7.0,8.0,80,0.00,,---,0.00,58.00,VWS V14.01,2013-03-15 01:10:00,
2013-03-14 18:13:00,51.0,45.1,30.10,SSE,148,5.0,6.0,80,0.00,,---,0.00,51.00,VWS V14.01,2013-03-15 01:13:00,
2013-03-14 18:15:00,51.0,45.1,30.10,SW,220,5.0,8.0,80,0.00,,---,0.00,53.00,VWS V14.01,2013-03-15 01:15:00,
2013-03-14 18:18:00,51.0,45.4,30.11,SSW,205,7.0,7.0,81,0.00,,---,0.00,28.00,VWS V14.01,2013-03-15 01:18:00,
2013-03-14 18:20:00,51.0,45.1,30.11,South,188,3.0,7.0,80,0.00,,---,0.00,39.00,VWS V14.01,2013-03-15 01:20:00,
2013-03-14 18:23:00,50.9,45.3,30.11,South,188,5.0,11.0,81,0.00,,---,0.00,16.00,VWS V14.01,2013-03-15 01:23:00,
2013-03-14 18:25:00,51.0,45.4,30.11,SSW,213,7.0,7.0,81,0.00,,---,0.00,18.00,VWS V14.01,2013-03-15 01:25:00,
2013-03-14 18:28:00,50.9,45.6,30.12,South,186,7.0,8.0,82,0.00,,---,0.00,14.00,VWS V14.01,2013-03-15 01:28:00,
2013-03-14 18:30:00,50.9,45.3,30.11,South,184,4.0,11.0,81,0.00,,---,0.00,14.00,VWS V14.01,2013-03-15 01:30:00,
2013-03-14 18:33:00,50.8,45.2,30.12,South,190,5.0,11.0,81,0.00,,---,0.00,14.00,VWS V14.01,2013-03-15 01:33:00,
2013-03-14 18:35:00,50.8,45.2,30.12,SW,227,6.0,10.0,81,0.00,,---,0.00,12.00,VWS V14.01,2013-03-15 01:35:00,
2013-03-14 18:38:00,50.7,45.1,30.12,SSW,205,2.0,6.0,81,0.00,,---,0.00,7.00,VWS V14.01,2013-03-15 01:38:00,
2013-03-14 18:40:00,50.7,45.1,30.12,SW,215,6.0,13.0,81,0.00,,---,0.00,9.00,VWS V14.01,2013-03-15 01:40:00,
2013-03-14 18:43:00,50.5,45.2,30.12,SW,225,3.0,6.0,82,0.00,,---,0.00,7.00,VWS V14.01,2013-03-15 01:43:00,
2013-03-14 18:45:00,50.6,45.3,30.12,SW,234,4.0,8.0,82,0.00,,---,0.00,7.00,VWS V14.01,2013-03-15 01:45:00,
2013-03-14 18:48:00,50.4,45.4,30.12,SSW,207,5.0,6.0,83,0.00,,---,0.00,5.00,VWS V14.01,2013-03-15 01:48:00,
2013-03-14 18:50:00,50.4,45.4,30.12,SSW,192,5.0,10.0,83,0.00,,---,0.00,5.00,VWS V14.01,2013-03-15 01:50:00,
2013-03-14 18:53:00,50.2,45.6,30.12,SW,220,5.0,9.0,84,0.00,,---,0.00,11.00,VWS V14.01,2013-03-15 01:53:00,
2013-03-14 18:55:00,50.2,45.6,30.12,SW,231,4.0,8.0,84,0.00,,---,0.00,9.00,VWS V14.01,2013-03-15 01:55:00,
2013-03-14 18:58:00,50.0,45.4,30.12,South,183,4.0,5.0,84,0.00,,---,0.00,9.00,VWS V14.01,2013-03-15 01:58:00,
2013-03-14 19:00:00,50.1,45.5,30.12,South,184,5.0,9.0,84,0.00,,---,0.00,11.00,VWS V14.01,2013-03-15 02:00:00,
2013-03-14 19:03:00,49.9,45.6,30.12,SSW,198,3.0,4.0,85,0.00,,---,0.00,5.00,VWS V14.01,2013-03-15 02:03:00,
2013-03-14 19:05:00,49.9,45.6,30.12,SSW,208,2.0,7.0,85,0.00,,---,0.00,5.00,VWS V14.01,2013-03-15 02:05:00,
2013-03-14 19:08:00,49.8,45.5,30.11,SSE,159,2.0,4.0,85,0.00,,---,0.00,0.00,VWS V14.01,2013-03-15 02:08:00,
2013-03-14 19:10:00,49.8,45.5,30.12,South,171,2.0,5.0,85,0.00,,---,0.00,0.00,VWS V14.01,2013-03-15 02:10:00,
2013-03-14 19:13:00,49.6,45.6,30.11,South,186,4.0,4.0,86,0.00,,---,0.00,0.00,VWS V14.01,2013-03-15 02:13:00,
2013-03-14 19:15:00,49.7,45.4,30.11,South,188,4.0,6.0,85,0.00,,---,0.00,0.00,VWS V14.01,2013-03-15 02:15:00,
2013-03-14 19:18:00,49.4,45.7,30.11,South,183,7.0,7.0,87,0.00,,---,0.00,0.00,VWS V14.01,2013-03-15 02:18:00,
2013-03-14 19:20:00,49.5,45.5,30.11,South,184,3.0,7.0,86,0.00,,---,0.00,0.00,VWS V14.01,2013-03-15 02:20:00,
2013-03-14 19:23:00,49.3,45.6,30.11,SE,140,4.0,6.0,87,0.01,,---,0.01,0.00,VWS V14.01,2013-03-15 02:23:00,
2013-03-14 19:25:00,49.4,45.7,30.12,SSE,151,3.0,7.0,87,0.00,,---,0.00,0.00,VWS V14.01,2013-03-15 02:25:00,
2013-03-14 19:28:00,49.1,45.4,30.11,South,175,5.0,8.0,87,0.01,,---,0.01,0.00,VWS V14.01,2013-03-15 02:28:00,
2013-03-14 19:30:00,49.2,45.5,30.12,SSE,167,3.0,14.0,87,0.01,,---,0.01,0.00,VWS V14.01,2013-03-15 02:30:00,
2013-03-14 19:33:00,49.0,45.6,30.12,SSE,160,3.0,5.0,88,0.01,,---,0.01,0.00,VWS V14.01,2013-03-15 02:33:00,
2013-03-14 19:35:00,49.0,45.3,30.12,South,179,1.0,8.0,87,0.01,,---,0.01,0.00,VWS V14.01,2013-03-15 02:35:00,
2013-03-14 19:38:00,49.0,45.9,30.12,SSE,153,0.0,1.0,89,0.01,,---,0.01,0.00,VWS V14.01,2013-03-15 02:38:00,
2013-03-14 19:40:00,49.0,45.6,30.12,SSE,153,0.0,5.0,88,0.01,,---,0.01,0.00,VWS V14.01,2013-03-15 02:40:00,
2013-03-14 19:44:00,48.9,45.8,30.12,SE,129,0.0,2.0,89,0.01,,---,0.01,0.00,VWS V14.01,2013-03-15 02:44:00,
2013-03-14 19:45:00,48.9,45.8,30.12,South,186,1.0,3.0,89,0.01,,---,0.01,0.00,VWS V14.01,2013-03-15 02:45:00,
2013-03-14 19:49:00,48.8,45.7,30.12,SSE,158,1.0,3.0,89,0.01,,---,0.01,0.00,VWS V14.01,2013-03-15 02:49:00,
2013-03-14 19:50:00,48.8,45.7,30.12,SSE,152,1.0,2.0,89,0.01,,---,0.01,0.00,VWS V14.01,2013-03-15 02:50:00,
2013-03-14 19:54:00,48.7,45.6,30.12,SSE,159,3.0,5.0,89,0.01,,---,0.01,0.00,VWS V14.01,2013-03-15 02:54:00,
2013-03-14 19:55:00,48.7,45.6,30.12,SSE,148,2.0,4.0,89,0.01,,---,0.01,0.00,VWS V14.01,2013-03-15 02:55:00,
2013-03-14 19:59:00,48.7,45.6,30.12,SSW,195,3.0,3.0,89,0.01,,---,0.01,0.00,VWS V14.01,2013-03-15 02:59:00,
2013-03-14 20:00:00,48.7,45.6,30.12,SE,144,1.0,5.0,89,0.01,,---,0.01,0.00,VWS V14.01,2013-03-15 03:00:00,
2013-03-14 20:04:00,48.7,45.6,30.12,SSE,153,1.0,2.0,89,0.01,,---,0.01,0.00,VWS V14.01,2013-03-15 03:04:00,
2013-03-14 20:05:00,48.7,45.6,30.12,South,173,2.0,4.0,89,0.01,,---,0.01,0.00,VWS V14.01,2013-03-15 03:05:00,
2013-03-14 20:09:00,48.7,45.6,30.12,SSE,158,1.0,7.0,89,0.01,,---,0.01,0.00,VWS V14.01,2013-03-15 03:09:00,
2013-03-14 20:10:00,48.7,45.6,30.12,SSW,202,7.0,7.0,89,0.01,,---,0.01,0.00,VWS V14.01,2013-03-15 03:10:00,
2013-03-14 20:14:00,48.6,45.5,30.12,SE,146,1.0,6.0,89,0.01,,---,0.01,0.00,VWS V14.01,2013-03-15 03:14:00,
2013-03-14 20:15:00,48.6,45.8,30.12,SSE,153,5.0,7.0,90,0.01,,---,0.01,0.00,VWS V14.01,2013-03-15 03:15:00,
2013-03-14 20:19:00,48.6,45.5,30.12,SSE,148,0.0,3.0,89,0.01,,---,0.01,0.00,VWS V14.01,2013-03-15 03:19:00,
2013-03-14 20:20:00,48.6,45.5,30.12,SSE,152,3.0,6.0,89,0.01,,---,0.01,0.00,VWS V14.01,2013-03-15 03:20:00,
2013-03-14 20:24:00,48.6,45.5,30.12,SE,137,0.0,3.0,89,0.01,,---,0.01,0.00,VWS V14.01,2013-03-15 03:24:00,
2013-03-14 20:25:00,48.6,45.5,30.12,SSE,156,1.0,3.0,89,0.01,,---,0.01,0.00,VWS V14.01,2013-03-15 03:25:00,
2013-03-14 20:29:00,48.6,45.5,30.12,SSE,152,0.0,1.0,89,0.00,,---,0.01,0.00,VWS V14.01,2013-03-15 03:29:00,
2013-03-14 20:30:00,48.6,45.5,30.12,SSE,151,0.0,3.0,89,0.01,,---,0.01,0.00,VWS V14.01,2013-03-15 03:30:00,
2013-03-14 20:34:00,48.7,45.9,30.12,ENE,78,0.0,0.0,90,0.00,,---,0.01,0.00,VWS V14.01,2013-03-15 03:34:00,
2013-03-14 20:35:00,48.6,45.5,30.12,ENE,78,0.0,2.0,89,0.00,,---,0.01,0.00,VWS V14.01,2013-03-15 03:35:00,
2013-03-14 20:39:00,48.6,45.8,30.12,ENE,78,0.0,0.0,90,0.00,,---,0.01,0.00,VWS V14.01,2013-03-15 03:39:00,
2013-03-14 20:40:00,48.7,45.9,30.12,ENE,78,0.0,2.0,90,0.00,,---,0.01,0.00,VWS V14.01,2013-03-15 03:40:00,
2013-03-14 20:44:00,48.6,45.8,30.13,SSE,165,1.0,5.0,90,0.00,,---,0.01,0.00,VWS V14.01,2013-03-15 03:44:00,
2013-03-14 20:45:00,48.6,45.8,30.13,South,182,5.0,5.0,90,0.00,,---,0.01,0.00,VWS V14.01,2013-03-15 03:45:00,
2013-03-14 20:49:00,48.6,45.8,30.13,SSE,165,0.0,2.0,90,0.00,,---,0.01,0.00,VWS V14.01,2013-03-15 03:49:00,
2013-03-14 20:50:00,48.6,45.8,30.13,SSE,157,2.0,5.0,90,0.00,,---,0.01,0.00,VWS V14.01,2013-03-15 03:50:00,
2013-03-14 20:54:00,48.6,46.1,30.13,South,176,0.0,0.0,91,0.00,,---,0.01,0.00,VWS V14.01,2013-03-15 03:54:00,
2013-03-14 20:55:00,48.6,46.1,30.13,South,177,0.0,3.0,91,0.00,,---,0.01,0.00,VWS V14.01,2013-03-15 03:55:00,
2013-03-14 20:59:00,48.5,46.0,30.13,SSE,164,0.0,2.0,91,0.00,,---,0.01,0.00,VWS V14.01,2013-03-15 03:59:00,
2013-03-14 21:00:00,48.5,46.0,30.13,SSE,165,0.0,2.0,91,0.00,,---,0.01,0.00,VWS V14.01,2013-03-15 04:00:00,
2013-03-14 21:05:00,48.5,46.3,30.13,SSE,165,0.0,0.0,92,0.00,,---,0.01,0.00,VWS V14.01,2013-03-15 04:05:00,
2013-03-14 21:10:00,48.4,46.2,30.13,SSW,208,0.0,0.0,92,0.00,,---,0.01,0.00,VWS V14.01,2013-03-15 04:10:00,
2013-03-14 21:15:00,48.4,46.5,30.14,SSW,208,0.0,0.0,93,0.00,,---,0.01,0.00,VWS V14.01,2013-03-15 04:15:00,
2013-03-14 21:20:00,48.3,46.4,30.14,SSW,209,0.0,0.0,93,0.00,,---,0.01,0.00,VWS V14.01,2013-03-15 04:20:00,
2013-03-14 21:25:00,48.3,46.4,30.14,SSW,208,0.0,0.0,93,0.00,,---,0.01,0.00,VWS V14.01,2013-03-15 04:25:00,
2013-03-14 21:30:00,48.2,46.3,30.14,SSW,207,0.0,0.0,93,0.00,,---,0.01,0.00,VWS V14.01,2013-03-15 04:30:00,
2013-03-14 21:35:00,48.1,46.2,30.14,SSW,209,0.0,0.0,93,0.01,,---,0.02,0.00,VWS V14.01,2013-03-15 04:35:00,
2013-03-14 21:40:00,48.1,46.5,30.14,SSW,209,0.0,0.0,94,0.01,,---,0.02,0.00,VWS V14.01,2013-03-15 04:40:00,
2013-03-14 21:45:00,48.0,46.4,30.14,SSW,207,0.0,0.0,94,0.01,,---,0.02,0.00,VWS V14.01,2013-03-15 04:45:00,
2013-03-14 21:50:00,47.9,46.3,30.14,SSW,207,0.0,0.0,94,0.01,,---,0.02,0.00,VWS V14.01,2013-03-15 04:50:00,
2013-03-14 21:55:00,47.9,46.3,30.14,SSW,208,0.0,0.0,94,0.01,,---,0.02,0.00,VWS V14.01,2013-03-15 04:55:00,
2013-03-14 22:00:00,47.8,46.2,30.14,SE,137,0.0,0.0,94,0.01,,---,0.02,0.00,VWS V14.01,2013-03-15 05:00:00,
2013-03-14 22:05:00,47.8,46.4,30.15,SE,138,0.0,0.0,95,0.01,,---,0.02,0.00,VWS V14.01,2013-03-15 05:05:00,
2013-03-14 22:10:00,47.7,46.3,30.15,SE,137,0.0,0.0,95,0.01,,---,0.02,0.00,VWS V14.01,2013-03-15 05:10:00,
2013-03-14 22:15:00,47.7,46.3,30.15,SE,137,0.0,0.0,95,0.01,,---,0.02,0.00,VWS V14.01,2013-03-15 05:15:00,
2013-03-14 22:20:00,47.6,46.2,30.15,ESE,115,0.0,0.0,95,0.01,,---,0.02,0.00,VWS V14.01,2013-03-15 05:20:00,
2013-03-14 22:25:00,47.6,46.2,30.16,South,185,0.0,3.0,95,0.01,,---,0.02,0.00,VWS V14.01,2013-03-15 05:25:00,
2013-03-14 22:30:00,47.6,46.2,30.16,SSE,157,2.0,5.0,95,0.01,,---,0.02,0.00,VWS V14.01,2013-03-15 05:30:00,
2013-03-14 22:35:00,47.5,46.1,30.16,South,186,3.0,5.0,95,0.01,,---,0.02,0.00,VWS V14.01,2013-03-15 05:35:00,
2013-03-14 22:40:00,47.5,46.1,30.16,SSE,161,8.0,8.0,95,0.00,,---,0.02,0.00,VWS V14.01,2013-03-15 05:40:00,
2013-03-14 22:45:00,47.5,46.4,30.16,South,171,5.0,8.0,96,0.00,,---,0.02,0.00,VWS V14.01,2013-03-15 05:45:00,
2013-03-14 22:50:00,47.5,46.4,30.16,SSW,204,5.0,7.0,96,0.00,,---,0.02,0.00,VWS V14.01,2013-03-15 05:50:00,
2013-03-14 22:55:00,47.5,46.4,30.16,SSW,192,1.0,7.0,96,0.00,,---,0.02,0.00,VWS V14.01,2013-03-15 05:55:00,
2013-03-14 22:56:00,47.5,46.4,30.16,SSW,209,4.0,6.0,96,0.00,,---,0.02,0.00,VWS V14.01,2013-03-15 05:56:00,
2013-03-14 23:00:00,47.5,46.4,30.16,SW,215,6.0,6.0,96,0.00,,---,0.02,0.00,VWS V14.01,2013-03-15 06:00:00,
2013-03-14 23:01:00,47.5,46.4,30.16,SSW,209,4.0,6.0,96,0.00,,---,0.02,0.00,VWS V14.01,2013-03-15 06:01:00,
2013-03-14 23:05:00,47.5,46.4,30.17,SSE,161,0.0,6.0,96,0.00,,---,0.02,0.00,VWS V14.01,2013-03-15 06:05:00,
2013-03-14 23:06:00,47.5,46.4,30.17,SSE,165,1.0,3.0,96,0.00,,---,0.02,0.00,VWS V14.01,2013-03-15 06:06:00,
2013-03-14 23:10:00,47.5,46.4,30.17,SSE,167,0.0,3.0,96,0.00,,---,0.02,0.00,VWS V14.01,2013-03-15 06:10:00,
2013-03-14 23:11:00,47.5,46.4,30.17,SSE,155,0.0,1.0,96,0.00,,---,0.02,0.00,VWS V14.01,2013-03-15 06:11:00,
2013-03-14 23:15:00,47.5,46.4,30.17,South,181,1.0,1.0,96,0.00,,---,0.02,0.00,VWS V14.01,2013-03-15 06:15:00,
2013-03-14 23:16:00,47.5,46.4,30.17,SSW,205,0.0,2.0,96,0.00,,---,0.02,0.00,VWS V14.01,2013-03-15 06:16:00,
2013-03-14 23:20:00,47.5,46.4,30.17,SSW,203,0.0,2.0,96,0.00,,---,0.02,0.00,VWS V14.01,2013-03-15 06:20:00,
2013-03-14 23:21:00,47.5,46.4,30.17,SSW,205,0.0,1.0,96,0.00,,---,0.02,0.00,VWS V14.01,2013-03-15 06:21:00,
2013-03-14 23:25:00,47.5,46.4,30.17,SSW,205,0.0,1.0,96,0.00,,---,0.02,0.00,VWS V14.01,2013-03-15 06:25:00,
2013-03-14 23:26:00,47.5,46.4,30.17,South,186,3.0,3.0,96,0.00,,---,0.02,0.00,VWS V14.01,2013-03-15 06:26:00,
2013-03-14 23:30:00,47.5,46.4,30.17,SSW,200,0.0,3.0,96,0.00,,---,0.02,0.00,VWS V14.01,2013-03-15 06:30:00,
2013-03-14 23:31:00,47.6,46.5,30.17,SE,142,4.0,4.0,96,0.00,,---,0.02,0.00,VWS V14.01,2013-03-15 06:31:00,
2013-03-14 23:35:00,47.6,46.8,30.17,SSW,201,4.0,5.0,97,0.00,,---,0.02,0.00,VWS V14.01,2013-03-15 06:35:00,
2013-03-14 23:40:00,47.7,46.9,30.17,SSW,206,5.0,7.0,97,0.01,,---,0.03,0.00,VWS V14.01,2013-03-15 06:40:00,
2013-03-14 23:45:00,47.8,47.0,30.17,South,172,2.0,6.0,97,0.01,,---,0.03,0.00,VWS V14.01,2013-03-15 06:45:00,
2013-03-14 23:50:00,47.8,47.0,30.17,South,179,4.0,7.0,97,0.01,,---,0.03,0.00,VWS V14.01,2013-03-15 06:50:00,
2013-03-14 23:55:00,47.9,47.1,30.17,South,182,5.0,6.0,97,0.01,,---,0.03,0.00,VWS V14.01,2013-03-15 06:55:00,